Location: ????????
(55.6189°N, 38.3031°E)
Time: 16:37:49
(UTC+00:00)

H-2A R/B - Pass Details

Date: 15 November 2019
Orbit: 530 x 652 km, 98.3° (Epoch: 08 December)

Event Time Altitude Azimuth Distance (km) Brightness Sun altitude
Rises 01:35:27 0° 18° (NNE) 2,977 6.4 -28.5°
Reaches altitude 10° 01:37:43 10° 23° (NNE) 2,069 5.6 -28.2°
Maximum altitude 01:42:10 54° 101° (E) 795 3.3 -27.6°
Enters shadow 01:42:56 48° 138° (SE) 860 3.4 -27.5°
